Regional Weather Roundup
Issued by NWS

Home | Current Version | Previous Version | Graphics & Text | Print | Product List | Glossary On
Versions: 1 2 3 4 5 6 7 8 9 10 11 12 13 14 15 16 17 18 19 20 21 22 23 24 25 26 27 28 29 30 31 32 33 34 35 36 37 38 39 40 41 42 43 44 45 46 47 48 49 50
937
ASUS44 KLIX 221105
RWRLA
LOUISIANA WEATHER ROUNDUP
NATIONAL WEATHER SERVICE NEW ORLEANS LA
600 AM CDT FRI AUG 22 2014

NOTE: "FAIR" INDICATES FEW OR NO CLOUDS BELOW 12,000 FEET WITH NO
      SIGNIFICANT WEATHER AND/OR OBSTRUCTIONS TO VISIBILITY.
      SKY/WX - SKY CONDITION AND SIGNIFICANT WEATHER.
      TMP - AIR TEMPERATURE.    DP   - DEWPOINT TEMPERATURE.
      RH  - RELATIVE HUMIDITY.  PRES - PRESSURE.
      HX  - HEAT INDEX.         WCI  - WIND CHILL INDEX.

*  THESE STATIONS ARE NOT NWS OR FAA STATIONS AND ARE NOT UNDER
   NWS QUALITY CONTROL.

LAZ040-048-061>063-065-066-069-221200-
SOUTHEAST LOUISIANA

CITY           SKY/WX    TMP DP  RH WIND       PRES   REMARKS
N.O. AUDUBON   NOT AVBL
N.O. INTL ARPT MOCLDY    76  73  91 W3        30.10R
N.O. LAKEFRONT CLEAR     82  76  81 NW5       30.09S
N.O. DOWNTOWN* FAIR      81  70  69 CALM      30.10S
SLIDELL        PTCLDY    74  71  91 CALM      30.09R
BATON ROUGE    PTCLDY    74  72  93 CALM      30.10R
BOOTHVILLE     PTCLDY    82  79  90 NW5       30.09R
BELLE CHASSE   PTCLDY    74  70  87 CALM      30.09R
BOGALUSA*      FAIR      74  70  88 CALM      30.11S
GALLIANO*      NOT AVBL
NEW ROADS*     FAIR      71  71  98 CALM      30.10S FOG
GONZALES*      FAIR      73  73 100 CALM      30.10R
HAMMOND*       NOT AVBL
HOUMA*         CLEAR     73  71  91 CALM      30.10R
PORT FOURCHON* PTSUNNY   84  77  79 CALM      30.10S

$$

LAZ041-044-053-054-221200-
SOUTHWEST LOUISIANA

CITY           SKY/WX    TMP DP  RH WIND       PRES   REMARKS
LAKE CHARLES   CLEAR     76  74  93 CALM      30.07S
LAFAYETTE      PTCLDY    75  73  93 CALM      30.09R
PATTERSON      CLEAR     73  72  94 CALM      30.12S
SALT POINT       N/A     80  77  90 CALM      30.08R
NEW IBERIA     PTCLDY    74  72  93 N3        30.09S
CHENAULT AIRPK NOT AVBL

$$

LAZ027-028-221200-
CENTRAL LOUISIANA

CITY           SKY/WX    TMP DP  RH WIND       PRES   REMARKS
FORT POLK      PTCLDY    73  73 100 CALM      30.08S
ALEXANDRIA INT CLOUDY    74  73  97 CALM      30.07R
ALEXANDRIA     CLOUDY    75  72  90 CALM      30.09R

$$

LAZ001-002-221200-
NORTHWEST LOUISIANA

CITY           SKY/WX    TMP DP  RH WIND       PRES   REMARKS
SHREVEPORT     PTCLDY    76  74  93 S7        30.06S
BARKSDALE AFB  CLEAR     73  73 100 S7        30.07S
DTN SHREVEPORT PTCLDY    77  32  19 S7        30.07R

$$

LAZ014-016-221200-
NORTHEAST LOUISIANA

CITY           SKY/WX    TMP DP  RH WIND       PRES   REMARKS
MONROE         PTCLDY    71  69  93 CALM      30.09S FOG
TALLULAH       MOCLDY    72  70  93 CALM      30.10R

$$




USA.gov is the U.S. government's official web portal to all federal, state and local government web resources and services.